Wind_Speed
6 6 6 7 7 7 8 9 9 10 10 11 11 11 12 12 13 13 13 14 13 14 14 14 14 14 14 15 16 16 16 16 16 16 16 16 15 15 15 14 14 13 12
5 6 7 7 7 8 9 9 9 10 10 11 11 12 12 12 13 14 14 14 14 15 16 16 15 15 15 15 16 16 16 16 16 16 16 15 16 16 15 15 14 15 14
6 6 7 8 8 8 8 9 9 9 9 10 11 12 13 12 12 13 14 15 15 15 16 16 16 16 16 16 17 16 16 16 15 15 15 16 16 16 16 15 15 15 14
7 8 8 8 8 8 8 8 8 9 9 10 10 11 11 11 12 13 14 14 14 15 16 17 17 17 17 17 17 16 16 16 16 16 16 16 17 16 17 17 16 15 15
7 8 8 9 9 9 8 8 8 9 9 10 10 11 11 11 12 12 13 14 14 15 16 17 16 16 16 16 17 16 16 15 15 15 15 15 16 17 17 18 18 17 17
9 8 9 9 9 9 10 9 9 9 9 10 10 11 12 12 13 13 13 13 14 14 15 15 16 16 16 16 17 17 16 15 15 15 16 16 16 17 18 18 18 18 17
10 10 9 9 10 10 10 10 10 10 10 10 11 11 12 12 12 12 13 13 14 14 15 15 16 16 16 16 15 16 17 17 16 17 16 16 17 17 18 18 18 19 18
11 11 11 11 11 11 11 11 11 11 11 11 11 11 12 12 12 12 13 13 13 13 14 15 15 16 15 15 15 16 16 17 17 18 17 18 18 18 18 19 18 18 19
11 12 12 12 12 12 12 12 12 12 12 12 12 12 12 12 12 12 13 13 13 14 14 14 15 15 16 16 16 16 17 17 17 17 18 18 18 18 19 20 19 19 18
12 13 13 13 13 13 13 13 13 12 12 12 12 12 12 13 12 13 13 13 13 14 15 15 15 16 16 16 16 16 17 17 17 17 18 18 19 18 18 19 19 19 19
13 13 13 13 13 14 14 14 14 13 13 13 13 13 13 13 13 14 14 14 14 15 15 16 15 16 16 16 16 16 16 17 17 17 17 18 17 18 18 18 19 19 19
13 14 14 14 14 14 14 14 14 14 13 13 13 13 13 13 13 14 14 14 15 16 16 16 16 16 16 16 16 16 16 17 18 17 17 16 17 17 17 17 18 18 18
14 14 14 14 14 14 14 14 14 14 14 13 13 13 13 14 14 14 14 14 15 16 16 16 16 16 16 16 16 16 16 16 16 16 17 17 17 17 17 17 18 18 19
14 14 14 14 14 15 14 15 15 15 14 14 14 13 13 14 14 14 14 15 16 16 16 16 16 16 16 16 16 15 16 15 15 15 16 17 18 18 17 18 18 18 19
15 15 15 15 15 15 15 15 15 15 14 14 14 13 13 14 14 15 15 15 15 16 16 16 16 16 16 15 15 15 15 15 15 15 16 16 16 17 17 18 19 19 20
16 16 16 16 16 15 15 15 15 15 15 15 15 15 14 14 14 15 15 15 16 16 16 16 16 16 16 16 16 15 15 15 15 16 16 16 16 17 17 18 19 19 19
17 17 17 17 17 16 16 16 16 16 16 16 15 15 15 15 15 16 16 16 16 16 16 16 16 16 15 16 17 17 16 16 16 17 17 17 17 17 18 18 19 19 20
17 18 17 18 17 17 17 17 16 17 16 16 16 16 16 16 16 16 17 17 17 17 17 17 17 17 16 16 17 17 18 18 18 18 18 18 18 18 19 19 19 20 21
18 18 17 18 18 17 17 17 17 17 17 17 17 17 17 18 18 18 18 18 18 18 18 18 18 19 18 18 18 18 18 18 18 19 19 19 19 19 19 19 20 20 21
19 19 18 18 18 18 18 18 18 18 18 18 18 18 19 19 19 18 18 18 18 19 19 19 19 19 19 19 19 18 19 19 19 19 19 20 20 20 20 20 20 21 21
20 19 18 18 19 19 18 18 19 19 19 19 20 19 19 19 19 19 19 19 19 19 19 20 20 20 20 20 20 20 20 20 20 20 20 21 21 20 21 21 21 22 22
20 20 19 20 20 20 20 20 20 20 20 20 20 20 21 20 20 20 20 19 20 20 20 20 20 20 21 21 21 21 21 21 21 21 22 22 22 22 22 22 23 23 23
21 21 21 21 21 21 22 22 21 21 21 21 21 21 21 21 21 21 20 20 20 20 20 20 20 21 21 22 22 22 22 22 22 22 22 23 23 23 24 24 25 25 25
22 22 22 22 22 22 23 24 23 22 22 22 21 21 21 20 21 21 21 21 20 20 20 21 21 22 22 23 23 23 23 23 23 23 23 23 24 24 25 25 25 26 26
22 23 23 23 23 23 24 25 25 25 24 23 23 22 22 22 22 22 22 22 22 22 22 22 22 23 23 24 24 24 24 25 24 24 24 24 25 25 26 26 26 27 27
24 24 24 24 24 24 24 25 26 26 25 25 24 24 23 23 23 23 23 23 23 24 24 24 24 24 25 25 25 25 25 25 26 25 26 26 26 26 27 27 28 28 28
Wind_Direction
305 305 302 298 293 287 283 281 275 270 265 263 259 256 254 251 246 244 243 244 247 247 245 247 248 249 249 248 250 252 254 257 258 256 255 255 255 254 251 251 250 250 248
298 303 305 301 296 293 291 289 282 277 273 269 262 257 253 250 249 248 246 246 246 246 246 246 248 249 251 252 252 253 252 254 257 257 256 255 254 252 250 250 249 249 248
293 297 302 302 299 298 296 290 283 279 275 271 265 263 256 250 250 250 248 246 246 247 248 249 250 253 255 255 255 256 256 253 254 255 256 255 252 251 250 250 251 249 248
288 292 296 298 296 298 297 292 286 280 278 272 269 268 258 250 251 252 250 248 249 250 251 252 252 253 253 254 255 255 256 257 259 258 255 255 253 252 251 251 252 249 249
293 293 295 296 294 293 294 292 288 285 281 275 271 267 263 258 256 256 252 249 249 250 251 251 251 253 253 254 254 254 256 259 259 258 257 256 255 254 252 253 253 252 252
293 293 293 292 293 294 294 292 289 287 284 279 274 269 266 265 263 262 258 254 253 253 255 255 253 254 256 253 251 251 255 257 257 257 255 253 253 252 251 250 250 250 252
292 296 294 292 294 294 292 291 290 287 283 280 276 273 269 267 264 260 260 260 258 257 259 258 256 255 257 258 260 256 255 255 257 256 253 251 252 252 252 249 249 249 249
293 296 296 295 293 293 291 289 288 287 283 280 277 276 272 268 264 258 258 258 259 256 257 257 258 259 260 260 265 264 262 259 259 260 258 255 253 254 253 251 249 250 250
293 295 297 296 294 292 290 289 286 285 281 277 274 274 272 270 267 262 259 259 260 257 255 257 258 259 259 259 263 266 266 264 263 261 259 257 255 254 253 249 250 250 250
290 292 293 295 295 293 290 290 288 288 284 280 277 274 272 269 268 266 263 262 263 262 258 256 258 259 258 259 262 264 266 264 263 261 257 255 252 251 252 252 251 251 251
290 291 292 293 293 294 293 290 289 289 287 283 280 276 275 273 270 268 264 262 262 261 260 259 259 261 259 260 263 263 263 262 261 259 255 252 251 251 252 252 252 252 252
287 289 291 291 291 292 292 291 291 289 286 283 281 279 276 274 272 270 268 266 264 262 262 263 264 266 265 266 268 267 265 264 260 256 252 249 249 250 249 250 249 249 250
283 286 289 290 291 291 290 290 290 287 283 281 280 279 276 273 271 269 268 268 267 265 264 263 263 264 266 266 267 267 267 265 261 257 253 250 252 251 250 250 250 251 251
281 283 285 287 289 291 291 291 289 286 282 280 279 277 276 274 272 270 270 268 267 266 265 265 264 264 265 265 266 267 267 263 260 259 258 256 256 256 254 252 253 255 254
280 280 281 284 287 289 290 290 288 284 282 280 279 279 278 277 274 272 271 270 269 267 264 263 264 266 266 266 267 268 267 263 259 258 257 257 257 256 256 255 255 257 256
281 280 280 283 284 286 286 287 287 285 281 280 280 281 280 280 278 275 274 274 272 268 266 266 265 267 266 268 269 267 264 262 260 260 259 260 260 259 259 260 259 258 257
282 281 280 281 282 283 284 286 286 283 280 279 278 279 279 279 278 277 276 275 273 270 268 267 267 266 266 267 266 265 265 262 261 262 261 262 262 262 262 261 261 260 258
282 281 280 280 281 281 281 283 285 282 279 277 276 277 278 278 280 279 276 275 273 272 269 266 267 266 265 265 264 266 266 263 261 262 262 262 263 263 264 265 262 261 260
281 280 279 280 280 280 280 280 282 282 280 277 275 275 276 277 279 279 277 275 273 271 269 266 267 267 266 266 265 265 265 264 264 263 263 263 264 264 265 265 262 261 262
280 280 278 278 278 279 278 278 279 279 280 278 275 274 275 276 278 280 279 275 272 270 269 268 267 267 266 267 268 267 266 266 265 264 264 265 265 265 266 266 264 264 265
279 279 279 278 276 276 278 277 276 277 278 278 276 274 275 276 277 278 278 276 272 269 267 267 266 265 265 265 266 268 269 268 267 267 267 267 265 265 266 267 268 268 268
279 279 280 280 279 278 278 279 275 274 275 277 278 276 273 274 275 275 275 275 272 270 267 267 265 266 266 266 266 267 269 269 268 267 268 268 267 265 265 266 268 268 267
277 278 278 279 278 278 278 278 278 276 275 276 276 276 273 272 272 272 272 273 273 271 270 267 267 268 267 266 267 267 268 269 269 269 268 268 269 269 267 268 268 269 269
277 277 278 279 278 277 276 276 276 276 275 275 275 274 274 272 271 270 270 271 271 272 271 270 268 267 266 266 269 269 266 266 268 269 269 269 269 269 270 270 271 273 272
277 277 278 278 277 277 275 275 275 276 276 275 275 274 272 271 271 272 271 271 271 272 272 270 269 268 268 268 268 269 267 266 266 269 270 271 271 271 271 271 272 273 273
277 277 277 276 276 277 276 276 276 275 274 273 274 274 274 272 271 272 272 272 271 271 271 270 268 269 269 269 268 268 268 267 267 268 269 270 271 271 271 272 272 272 273
Height
5843 5842 5841 5841 5840 5840 5839 5839 5838 5838 5838 5838 5837 5837 5838 5838 5839 5839 5839 5840 5841 5841 5842 5842 5843 5843 5843 5844 5844 5844 5844 5844 5845 5845 5846 5846 5846 5847 5847 5847 5847 5847 5847
5842 5841 5840 5839 5839 5838 5837 5836 5836 5835 5835 5835 5835 5835 5835 5835 5835 5836 5836 5837 5837 5838 5838 5839 5839 5840 5840 5840 5840 5840 5840 5841 5841 5842 5842 5843 5843 5843 5844 5844 5844 5845 5845
5840 5839 5839 5838 5837 5836 5835 5834 5833 5833 5833 5832 5832 5832 5832 5832 5832 5833 5833 5834 5834 5834 5835 5835 5836 5836 5836 5837 5837 5837 5836 5837 5838 5838 5839 5839 5839 5840 5840 5841 5841 5842 5842
5838 5837 5837 5836 5835 5834 5833 5832 5831 5831 5830 5830 5829 5829 5829 5829 5829 5830 5830 5830 5830 5831 5831 5832 5832 5833 5833 5833 5833 5833 5833 5834 5834 5835 5835 5835 5836 5836 5837 5837 5838 5838 5839
5836 5835 5834 5833 5832 5832 5831 5830 5829 5829 5828 5827 5827 5827 5827 5826 5826 5827 5827 5827 5827 5828 5828 5828 5829 5829 5829 5829 5829 5830 5830 5831 5831 5831 5831 5832 5832 5832 5832 5833 5834 5835 5835
5833 5832 5832 5831 5830 5829 5828 5827 5827 5826 5826 5825 5824 5824 5824 5824 5823 5823 5824 5824 5824 5824 5825 5825 5825 5825 5825 5826 5825 5826 5827 5827 5827 5827 5827 5828 5828 5828 5828 5829 5830 5831 5831
5830 5829 5829 5828 5827 5826 5825 5825 5824 5823 5823 5822 5822 5821 5821 5821 5820 5820 5821 5821 5821 5821 5821 5822 5822 5822 5822 5822 5822 5822 5823 5823 5823 5823 5823 5823 5824 5824 5824 5825 5826 5826 5828
5827 5827 5826 5825 5824 5823 5822 5822 5821 5820 5820 5819 5819 5818 5818 5818 5818 5817 5817 5817 5817 5818 5818 5818 5818 5819 5819 5819 5819 5819 5819 5819 5819 5819 5819 5819 5819 5820 5820 5821 5822 5822 5823
5825 5824 5823 5822 5821 5820 5819 5819 5818 5817 5816 5816 5815 5815 5815 5814 5814 5814 5814 5814 5814 5814 5814 5814 5814 5815 5815 5815 5815 5815 5815 5815 5814 5814 5814 5814 5814 5815 5815 5816 5817 5818 5819
5821 5821 5820 5819 5818 5817 5816 5815 5814 5814 5813 5812 5812 5811 5811 5811 5811 5811 5811 5811 5811 5811 5811 5811 5811 5811 5811 5811 5811 5811 5810 5810 5810 5809 5809 5809 5809 5810 5811 5812 5813 5814 5815
5818 5817 5816 5815 5814 5813 5812 5812 5811 5810 5809 5808 5808 5807 5807 5807 5807 5807 5807 5807 5807 5807 5807 5807 5807 5807 5807 5807 5806 5806 5806 5806 5805 5805 5804 5804 5804 5805 5806 5807 5808 5809 5810
5814 5813 5812 5811 5811 5810 5809 5808 5807 5806 5805 5804 5804 5803 5803 5803 5803 5803 5803 5803 5803 5803 5802 5802 5802 5802 5802 5802 5802 5802 5801 5801 5800 5800 5799 5800 5800 5801 5801 5802 5803 5804 5805
5810 5809 5808 5807 5806 5805 5805 5804 5803 5801 5801 5800 5799 5799 5799 5799 5798 5798 5798 5798 5798 5798 5798 5798 5798 5798 5798 5798 5798 5797 5797 5796 5796 5796 5795 5796 5796 5796 5797 5798 5799 5800 5801
5806 5805 5804 5803 5802 5801 5800 5799 5798 5797 5796 5796 5795 5795 5795 5794 5794 5794 5794 5794 5793 5793 5793 5793 5794 5794 5793 5793 5793 5793 5792 5792 5792 5792 5792 5792 5792 5792 5793 5794 5794 5795 5796
5801 5801 5800 5799 5798 5797 5796 5795 5794 5793 5792 5792 5791 5791 5790 5790 5789 5789 5789 5789 5789 5789 5789 5789 5789 5789 5789 5789 5789 5788 5788 5788 5788 5788 5788 5788 5788 5788 5789 5789 5790 5790 5791
5796 5795 5795 5794 5793 5793 5792 5791 5790 5788 5788 5787 5787 5786 5786 5785 5785 5785 5785 5785 5784 5784 5784 5784 5784 5784 5784 5784 5784 5784 5783 5783 5784 5783 5783 5784 5784 5784 5784 5784 5785 5785 5785
5791 5790 5789 5789 5788 5788 5787 5786 5785 5784 5783 5783 5782 5782 5781 5781 5780 5780 5780 5780 5780 5780 5780 5780 5779 5779 5780 5780 5779 5779 5779 5779 5779 5779 5779 5779 5779 5779 5779 5779 5779 5779 5780
5785 5785 5784 5783 5783 5782 5782 5781 5780 5779 5778 5778 5778 5777 5777 5776 5776 5775 5775 5775 5774 5775 5775 5775 5775 5775 5775 5775 5775 5774 5774 5774 5774 5774 5774 5774 5774 5774 5774 5774 5774 5774 5775
5780 5779 5779 5778 5777 5777 5776 5776 5775 5774 5773 5773 5773 5772 5772 5771 5771 5770 5769 5769 5769 5769 5769 5769 5769 5769 5770 5770 5770 5770 5769 5769 5769 5769 5769 5769 5769 5769 5769 5769 5769 5769 5769
5774 5774 5773 5772 5772 5771 5770 5770 5769 5769 5768 5767 5767 5766 5766 5766 5765 5764 5764 5763 5763 5763 5763 5764 5764 5764 5764 5764 5764 5764 5764 5764 5764 5763 5763 5763 5763 5763 5763 5763 5763 5763 5763
5768 5767 5767 5766 5766 5765 5765 5764 5764 5763 5762 5761 5761 5760 5760 5760 5759 5758 5758 5757 5757 5757 5757 5758 5758 5758 5758 5758 5758 5758 5758 5758 5758 5757 5757 5758 5758 5758 5757 5757 5757 5757 5757
5762 5761 5761 5760 5760 5759 5758 5758 5757 5757 5756 5755 5755 5754 5754 5753 5753 5752 5752 5751 5751 5751 5751 5751 5752 5752 5752 5752 5752 5752 5752 5752 5752 5752 5751 5751 5751 5751 5751 5751 5751 5750 5750
5756 5755 5755 5754 5754 5753 5752 5752 5751 5750 5750 5749 5748 5748 5747 5747 5746 5746 5745 5745 5745 5745 5745 5745 5745 5745 5745 5745 5745 5745 5745 5745 5745 5745 5744 5744 5744 5744 5744 5744 5743 5743 5743
5749 5748 5748 5747 5747 5746 5746 5745 5744 5743 5743 5743 5742 5741 5741 5740 5740 5739 5739 5739 5739 5738 5738 5738 5738 5738 5738 5738 5738 5738 5738 5738 5738 5737 5737 5737 5737 5736 5736 5736 5736 5735 5735
5742 5741 5741 5740 5740 5739 5738 5737 5737 5736 5736 5735 5735 5734 5734 5733 5733 5732 5732 5732 5732 5732 5731 5731 5731 5731 5731 5731 5731 5731 5731 5731 5731 5730 5730 5730 5730 5729 5728 5728 5727 5727 5726
5734 5734 5733 5732 5732 5731 5730 5729 5729 5728 5728 5728 5727 5726 5726 5726 5725 5724 5724 5724 5724 5724 5724 5724 5724 5723 5723 5723 5723 5723 5723 5723 5723 5723 5722 5722 5722 5721 5720 5720 5719 5718 5718